Terminal Aerodrome Forecast
Issued by NWS Cheyenne, WY

Home | Current Version | Previous Version | Text Only | Print | Product List | Glossary On
Versions: 1 2 3 4 5 6 7 8 9 10 11 12 13 14 15 16 17 18
000
FTUS45 KCYS 261125
TAFCYS
TAF
KCYS 261125Z 2612/2712 33011KT P6SM SKC
     FM261500 30017G25KT P6SM SCT050 BKN100
     FM262100 32015G25KT P6SM VCSH BKN060 OVC100
     FM270100 30007KT P6SM BKN100=

USA.gov is the U.S. government's official web portal to all federal, state and local government web resources and services.